Regional Weather Roundup
Issued by NWS Upton, NY

Current Version | Previous Version | Graphics & Text | Print | Product List | Glossary Off
Versions: 1 2 3 4 5 6 7 8 9 10 11 12 13 14 15 16 17 18 19 20 21 22 23 24 25 26 27 28 29 30 31 32 33 34 35 36 37 38 39 40 41 42 43 44 45 46 47 48 49

255
ASUS41 KOKX 251109
RWROKX

REGIONAL WEATHER ROUNDUP
NATIONAL WEATHER SERVICE NEW YORK NY
700 AM EDT TUE APR 25 2017

NOTE: "FAIR" INDICATES FEW OR NO CLOUDS BELOW 12,000 FEET WITH NO
SIGNIFICANT WEATHER AND/OR OBSTRUCTIONS TO VISIBILITY.

NYZ071-072-176-178-NJZ106-104-251200-
NEW YORK CITY METRO AREA

CITY           SKY/WX    TMP DP  RH WIND       PRES   REMARKS
Central Park   CLOUDY    50  48  93 E12G26    30.11R
Wall St Helipt CLOUDY    52  48  87 NE22      30.07S
Bronx Bot Gard   N/A     50  48  93 SE6       30.08F
LaGuardia APRT CLOUDY    52  48  86 NE17      30.08R
Kennedy INTL   LGT RAIN  51  50  96 NE14      30.08R
Breezy Point     N/A     50 N/A N/A NE14G20     N/A
Newark/Liberty LGT RAIN  52  49  89 NE14G20   30.08R
Teterboro      LGT RAIN  52  49  89 NE10G17   30.08R FOG
$$

NYZ177-179-078>081-251200-
LONG ISLAND NEW YORK

CITY           SKY/WX    TMP DP  RH WIND       PRES   REMARKS
Jones Beach      N/A     50 N/A N/A NE21G26     N/A
Matinecock PT  NOT AVBL
Farmingdale    CLOUDY    50  49  96 NE13      30.08R
MacArthur/ISP  CLOUDY    51  50  96 NE10      30.09R
Shirley        CLOUDY    51  48  89 VRB5G18   30.11R
Mt Sinai Harb    N/A    N/A N/A N/A E14         N/A
Westhampton    CLOUDY    51  47  86 E10G18    30.12R FOG
East Hampton   CLOUDY    48  47  96 NE7       30.13R
Montauk          N/A     48  47  96 E10       30.14R
$$

NYZ052-065-067-251200-
HUDSON VALLEY

CITY           SKY/WX    TMP DP  RH WIND       PRES   REMARKS
White Plains   CLOUDY    51  48  89 E9G17     30.09S
Larchmont Harb   N/A     50 N/A N/A NE25        N/A
Croton O-T Hud   N/A     50 N/A N/A MISG        N/A
Newburgh       CLOUDY    48  45  87 E9        30.14R
Montgomery     LGT RAIN  50  43  77 N12       30.12S
Poughkeepsie   LGT RAIN  48  45  89 N5        30.13S
Albany         CLOUDY    46  29  51 N5        30.18R
$$

NJZ001-105-106-008-010-013-015-019>022-104-251200-
NEW JERSEY

CITY           SKY/WX    TMP DP  RH WIND       PRES   REMARKS
Newark/Liberty LGT RAIN  52  49  89 NE14G20   30.08R
Teterboro      LGT RAIN  52  49  89 NE10G17   30.08R FOG
Caldwell       LGT RAIN  51  46  83 E13       30.09S
Somerville     LGT RAIN  51  48  89 NE12      30.03F FOG
Linden         DRIZZLE   52  48  88 NE12G18   30.06F
Sussex         LGT RAIN  48  45  89 NE9       30.11R
Andover          N/A     49  46  90 VRB3      30.08S
Trenton        CLOUDY    51  49  92 E17G23    30.02R
Millville      CLOUDY    53  53 100 NE15      29.94S FOG
Atlantic City  FOG       53  51  93 NE15G22   29.95S VSB 1/2
Wrightstown    LGT RAIN  52  50  93 NE16      29.99R FOG
Toms River     LGT RAIN  50  50 100 NE16G22   30.02R VSB 3/4
Belmar         CLOUDY    49  48  97 NE15G25   30.04S FOG
$$

PAZ047>061-062-071-251200-
EASTERN PENNSYLVANIA

CITY           SKY/WX    TMP DP  RH WIND       PRES   REMARKS
Philadelphia   CLOUDY    53  50  89 NE16G25   30.00R
Allentown      LGT RAIN  52  45  77 E17       30.04R
Scranton       CLOUDY    50  43  77 E12G20    30.05R
$$

CTZ002-004>006-009-010-012-RIZ004-006-007-MAZ004-011-015-251200-
SOUTHERN NEW ENGLAND
 IN CT

CITY           SKY/WX    TMP DP  RH WIND       PRES   REMARKS
Bradley INTL   LGT RAIN  50  44  80 NE7       30.19R
Hartford       LGT RAIN  51  46  83 N7        30.18R
Danbury        LGT RAIN  47  47 100 E9        30.14R
Wtrbury/Oxford LGT RAIN  48  43  81 E9        30.15R FOG
Bridgeport     LGT RAIN  53  49  86 NE14      30.12R
Meriden        LGT RAIN  52  48  86 NE8       30.16R
New Haven      CLOUDY    52  49  89 NE6       30.14R
Chester        LGT RAIN  50  50 100 E8        30.15R
Groton         RAIN      52  49  89 NE13      30.15R FOG
Wilimantic     LGT RAIN  52  49  89 NE7       30.18S

 IN RI

CITY           SKY/WX    TMP DP  RH WIND       PRES   REMARKS
Providence     LGT RAIN  50  49  96 NE12      30.21R
Block Island   LGT RAIN  48  47  96 NE14      30.15S FOG
Westerly       LGT RAIN  53  50  89 NE9G17    30.15S
 IN MA

CITY           SKY/WX    TMP DP  RH WIND       PRES   REMARKS
Boston         CLOUDY    47  46  97 NE13      30.27R
Worcester      LGT RAIN  46  43  89 NE7       30.22R
Westfield      LGT RAIN  53  39  59 NE6       30.20R
Provincetown   LGT RAIN  46  44  93 E12       30.25R
Nantucket      CLOUDY    50  46  86 E18G25    30.17R
$$

ANZ330-335-338-340-345-350-353-355-251200-
COASTAL MARINE OBSERVATIONS


STATION/POSITION TIME  SKY/WX   TEMP    WIND        PRES    VSBY  WAVE
                                AIR SEA DIR/SP/G                  HT/PER
                 (UTC)          (F)     (DEG/KT/KT) (MB)    (MI)  (FT/S)
NY HARB ENTRANCE 0950            49 49   60/ 21/ 27 1016.5          5/ 5
20 S FIRE ISLAND 1050            48 47   70/ 23/ 27 1015.9          6/ 7
GREAT SOUTH BAY  1015            53 55   70/ 21/ 27   N/A
23 SSW MONTAUK P 0950            48 46              1019.0          5/ 4
15 E BARNEGAT LI 1030               50                N/A           7/ 7
HUDSON CANYON    0950            49 47   70/ 16/ 19 1015.2          6/ 7
KINGS POINT      1048            50 47   90/  8/ 14 1018.5
EXECUTION ROCKS  NOT AVBL
CENTRAL LI SOUND 1045            49      80/ 17/ 21   N/A           2/ 4
EASTERN LI SOUND NOT AVBL
ROBBINS REEF     1048            50      50/ 15/ 18 1018.6
$$


>>>>>>>>>>>>>>>>>>>>>>>>>>>> KEY <<<<<<<<<<<<<<<<<<<<<<<<<<<
>                                                          <
>     SKY/WX - Sky Condition/Present Weather               <
>     TMP    - Temperature in Fahrenheit                   <
>     DP     - Dew Point in Fahrenheit                     <
>     RH     - Relative Humidity in Percent                <
>     WIND   - Direction (from) and Speed in MPH           <
>     PRES   - Mean Sea Level Pressure (inches of Hg)      <
>     WCI    - Wind Chill Index                            <
>     VSB    - VISIBILITY IN MILES                         <
>     HX     - HEAT INDEX                                  <
>     TC     - TEMPERATURE IN CELSIUS                      <
>     VRB    - VARIABLE WIND DIRECTION                     <
>                                                          <
>>>>>>>>>>>>>>>>>>>>>>>>>>>> KEY <<<<<<<<<<<<<<<<<<<<<<<<<<<




USA.gov is the U.S. government's official web portal to all federal, state and local government web resources and services.